LA4GY-1 Weather Reports


Display with metric or nautical units.
time (UTC)temp
F
wind
direction
speed
MPH
gust
MPH
rain 1hr
in
rain 24hr
in
rain mn
in
humidity
%
barometer
mb
20260902030957 44 335 0.0 0.0 0.00 0.01 0.00 93 1005.1
20260902025957 44 335 0.0 0.0 0.00 0.01 0.00 92 1005.2
20260902024957 44 321 0.0 0.0 0.00 0.01 0.00 92 1005.4
20260902023957 45 317 0.0 0.0 0.00 0.01 0.00 92 1005.4
20260902022957 45 332 0.0 0.0 0.00 0.02 0.00 92 1005.5
20260902021957 45 344 0.0 0.0 0.00 0.02 0.00 92 1005.5
20260902020957 45 304 0.0 0.0 0.00 0.02 0.00 91 1005.5
20260902015957 45 331 0.0 0.0 0.00 0.03 0.00 91 1005.7
20260902014957 46 326 0.0 0.0 0.00 0.04 0.00 91 1005.7
20260902013957 46 326 0.0 0.0 0.00 0.05 0.00 91 1005.7
20260902012957 46 337 0.0 0.0 0.00 0.06 0.00 91 1005.8
20260902011957 46 317 0.0 0.0 0.00 0.06 0.00 92 1006.0
20260902010957 46 337 0.0 0.0 0.00 0.06 0.00 92 1005.9
20260902005957 46 336 0.0 0.0 0.00 0.06 0.00 92 1006.0
20260902004957 46 336 0.0 0.0 0.00 0.06 0.00 92 1006.0
20260902003957 46 341 0.0 0.0 0.00 0.07 0.00 92 1006.0
20260902002956 46 320 0.0 0.0 0.00 0.07 0.00 91 1006.0
20260902001956 47 320 0.0 0.0 0.00 0.08 0.00 91 1006.1
20260902000956 47 320 0.0 0.0 0.00 0.08 0.00 91 1006.1
20260901235956 47 319 0.0 0.0 0.00 0.09 0.00 91 1006.2
20260901234956 47 319 0.0 0.0 0.00 0.09 0.00 91 1006.2
20260901233956 47 328 0.0 0.0 0.00 0.10 0.00 91 1006.3
20260901232956 47 331 0.0 0.0 0.00 0.11 0.00 91 1006.3
20260901231956 47 335 0.0 0.0 0.00 0.12 0.00 90 1006.4
20260901230956 47 335 0.0 0.0 0.00 0.13 0.00 90 1006.3
20260901225956 47 335 0.0 0.0 0.00 0.13 0.00 90 1006.5
20260901224956 48 334 0.0 0.0 0.00 0.13 0.00 90 1006.5
20260901223956 48 334 0.0 0.0 0.00 0.14 0.00 90 1006.4
20260901222956 48 334 0.0 0.0 0.00 0.15 0.00 90 1006.4
20260901221955 48 334 0.0 0.0 0.00 0.16 0.00 90 1006.5
20260901220955 48 334 0.0 0.0 0.00 0.17 0.00 90 1006.6
20260901215955 48 334 0.0 0.0 0.00 0.18 0.18 90 1006.6
20260901214925 48 334 0.0 0.0 0.00 0.18 0.18 90 1006.7
20260901213925 48 334 0.0 0.0 0.00 0.19 0.18 89 1006.7
20260901212925 48 334 0.0 0.0 0.00 0.19 0.18 90 1006.8
20260901211925 48 334 0.0 0.0 0.00 0.19 0.18 89 1006.9
20260901210925 49 334 0.0 0.0 0.00 0.19 0.18 89 1006.9
20260901205925 49 330 0.0 0.0 0.00 0.19 0.18 88 1007.0
20260901204925 49 331 0.0 0.0 0.00 0.20 0.18 89 1007.0
20260901203855 49 331 0.0 0.0 0.00 0.20 0.18 88 1007.0
20260901202855 49 331 0.0 0.0 0.00 0.21 0.18 88 1007.0
20260901201855 50 331 0.0 0.0 0.00 0.22 0.18 88 1007.1
20260901200855 50 331 0.0 0.0 0.00 0.22 0.18 88 1007.1
20260901195855 50 325 0.0 0.0 0.00 0.23 0.18 87 1007.2
20260901194825 50 337 0.0 0.0 0.00 0.23 0.18 86 1007.2
20260901193826 51 259 0.0 0.0 0.00 0.23 0.18 86 1007.2
20260901192755 51 246 0.0 0.0 0.00 0.23 0.18 87 1007.1
20260901191755 51 246 0.0 0.0 0.00 0.23 0.18 86 1007.1
20260901190755 51 246 0.0 0.0 0.00 0.23 0.18 86 1007.1
20260901185755 51 246 0.0 0.0 0.00 0.23 0.18 85 1007.0
20260901184754 52 246 0.0 0.0 0.00 0.23 0.18 85 1007.1
20260901183754 52 246 0.0 0.0 0.00 0.23 0.18 84 1007.1
20260901182754 53 246 0.0 0.0 0.00 0.23 0.18 84 1007.0
20260901181754 53 246 0.0 0.0 0.00 0.23 0.18 84 1007.1
20260901180754 53 207 0.0 0.0 0.00 0.23 0.18 85 1007.1
20260901175754 53 355 0.0 0.0 0.00 0.23 0.18 84 1007.1
20260901174754 53 337 0.0 0.0 0.00 0.23 0.18 83 1007.1
20260901173754 54 159 0.0 0.0 0.00 0.23 0.18 83 1007.1
20260901172754 54 123 0.0 0.0 0.00 0.23 0.18 82 1007.0
20260901171754 54 73 0.0 0.0 0.00 0.23 0.18 82 1007.0
20260901170754 55 88 0.0 0.0 0.00 0.23 0.18 82 1006.9
20260901165754 55 124 0.0 0.0 0.00 0.23 0.18 82 1006.9
20260901164754 55 167 0.0 0.0 0.00 0.23 0.18 81 1007.0
20260901163753 56 115 0.0 0.0 0.00 0.23 0.18 79 1006.9
20260901162753 56 101 0.0 0.0 0.00 0.23 0.18 80 1006.8
20260901161753 57 149 0.0 0.0 0.00 0.23 0.18 79 1006.7
20260901160753 58 166 0.0 0.0 0.00 0.23 0.18 76 1006.7
20260901155753 58 117 0.0 0.0 0.00 0.23 0.18 75 1006.5
20260901154753 58 242 0.0 0.0 0.00 0.23 0.18 74 1006.6
20260901153753 59 252 0.0 0.0 0.00 0.23 0.18 74 1006.7
20260901152753 59 304 0.0 0.0 0.00 0.23 0.18 74 1006.7
20260901151723 59 205 0.0 0.0 0.00 0.23 0.18 74 1006.6
20260901150723 59 202 0.0 0.0 0.00 0.23 0.18 72 1006.7
20260901145723 59 230 0.0 0.0 0.00 0.23 0.18 71 1006.7
20260901144653 60 220 0.0 0.0 0.00 0.23 0.18 70 1006.6
20260901143623 60 183 0.0 0.0 0.00 0.23 0.18 71 1006.6
20260901142623 60 216 0.0 0.0 0.00 0.23 0.18 70 1006.7
20260901141623 61 237 0.0 0.0 0.00 0.23 0.18 70 1006.6
20260901140553 61 186 0.0 0.0 0.00 0.23 0.18 72 1006.5
20260901135553 61 221 0.0 0.0 0.00 0.23 0.18 71 1006.5
20260901134523 61 170 0.0 0.0 0.00 0.23 0.18 74 1006.5
20260901133453 60 178 0.0 0.0 0.00 0.23 0.18 75 1006.5
20260901132453 60 214 0.0 0.0 0.00 0.23 0.18 75 1006.5
20260901131453 60 200 0.0 0.0 0.00 0.23 0.18 75 1006.5
20260901130453 60 245 0.0 0.0 0.00 0.23 0.18 75 1006.4
20260901125423 60 171 0.0 0.0 0.00 0.23 0.18 76 1006.4
20260901124423 60 170 0.0 0.0 0.00 0.23 0.18 76 1006.5
20260901123423 60 193 0.0 0.0 0.00 0.23 0.18 78 1006.6
20260901122422 60 166 0.0 0.0 0.00 0.23 0.18 78 1006.5
20260901121422 59 195 0.0 0.0 0.00 0.23 0.18 81 1006.6
20260901120422 58 244 0.0 0.0 0.00 0.23 0.18 82 1006.7
20260901115422 58 182 0.0 0.0 0.00 0.23 0.18 81 1006.6
20260901114422 57 226 0.0 0.0 0.00 0.23 0.18 82 1006.4
20260901113422 57 204 0.0 0.0 0.00 0.23 0.18 81 1006.5
20260901112422 57 236 0.0 0.0 0.00 0.23 0.18 81 1006.3
20260901111422 57 262 0.0 0.0 0.00 0.23 0.18 81 1006.3
20260901110422 57 196 0.0 0.0 0.00 0.23 0.18 84 1006.2
20260901105422 57 190 0.0 0.0 0.00 0.23 0.18 87 1006.3
20260901104422 56 185 0.0 0.0 0.00 0.23 0.18 86 1006.2
20260901103422 56 190 0.0 0.0 0.00 0.23 0.18 86 1006.2
20260901102422 56 183 0.0 0.0 0.00 0.23 0.18 85 1006.1
20260901101422 56 187 0.0 0.0 0.00 0.23 0.18 85 1006.0
20260901100422 56 178 0.0 0.0 0.00 0.23 0.18 85 1006.0
20260901095352 56 156 0.0 0.0 0.00 0.23 0.18 86 1006.0
20260901094352 56 233 0.0 0.0 0.00 0.23 0.18 85 1005.8
20260901093352 56 185 0.0 0.0 0.00 0.23 0.18 86 1005.8
20260901092352 56 236 0.0 0.0 0.00 0.23 0.18 86 1005.7
20260901091352 56 179 0.0 0.0 0.00 0.23 0.18 87 1005.7
20260901090351 56 139 0.0 0.0 0.00 0.23 0.18 88 1005.7
20260901085351 55 165 0.0 0.0 0.00 0.23 0.18 89 1005.7
20260901084351 55 202 0.0 0.0 0.00 0.23 0.18 89 1005.7
20260901083351 55 214 0.0 0.0 0.00 0.23 0.18 89 1005.7
20260901082351 55 157 0.0 0.0 0.00 0.23 0.18 91 1005.7
20260901081351 55 169 0.0 0.0 0.00 0.23 0.18 91 1005.7
20260901080351 54 199 0.0 0.0 0.00 0.23 0.18 90 1005.7
20260901075351 54 165 0.0 0.0 0.00 0.23 0.18 91 1005.7
20260901074351 54 251 0.0 0.0 0.00 0.23 0.18 91 1005.6
20260901073321 54 105 0.0 0.0 0.00 0.23 0.18 92 1005.4
20260901072321 54 123 0.0 0.0 0.00 0.23 0.18 92 1005.3
20260901071321 54 91 0.0 0.0 0.00 0.23 0.18 92 1005.3
20260901070321 54 236 0.0 0.0 0.00 0.23 0.18 92 1005.2
20260901065321 54 192 0.0 0.0 0.00 0.23 0.18 92 1005.1
20260901064321 54 196 0.0 0.0 0.00 0.23 0.18 92 1005.1
20260901063321 53 195 0.0 0.0 0.00 0.23 0.18 92 1005.0
20260901062321 53 159 0.0 0.0 0.00 0.23 0.18 93 1005.0
20260901061321 53 184 0.0 0.0 0.00 0.23 0.18 93 1004.9
20260901060321 52 175 0.0 0.0 0.00 0.23 0.18 93 1004.9
20260901055321 52 161 0.0 0.0 0.00 0.23 0.18 94 1004.8
20260901054321 52 172 0.0 0.0 0.00 0.23 0.18 93 1004.8
20260901053320 52 170 0.0 0.0 0.00 0.23 0.18 94 1004.6
20260901052320 52 105 0.0 0.0 0.00 0.23 0.18 94 1004.5
20260901051320 52 30 0.0 0.0 0.00 0.23 0.18 93 1004.6
20260901050320 52 86 0.0 0.0 0.00 0.23 0.18 93 1004.6
20260901045320 52 101 0.0 0.0 0.00 0.23 0.18 93 1004.5
20260901044320 52 60 0.0 0.0 0.01 0.23 0.18 94 1004.5
20260901043320 52 194 0.0 0.0 0.01 0.23 0.18 94 1004.5
20260901042320 52 215 0.0 0.0 0.01 0.23 0.18 93 1004.5
20260901041320 52 201 0.0 0.0 0.01 0.23 0.18 94 1004.5
20260901040320 52 319 0.0 0.0 0.01 0.23 0.18 94 1004.4
20260901035320 53 154 0.0 0.0 0.01 0.23 0.18 94 1004.3
20260901034320 53 155 0.0 0.0 0.00 0.22 0.17 94 1004.5
20260901033320 53 196 0.0 0.0 0.00 0.22 0.17 94 1004.4
20260901032320 53 183 0.0 0.0 0.01 0.22 0.17 94 1004.5